GFSGBSN_sfc_rhum_225.txt.gz
RH
89 90 91 93 93 92 91 90 90 90 90 90 91 91 89 86 86 88 91 91 90 89 89 89 88 90 48 39 31 26 59 53 28 24 24 25 26 27 28 27 27 28 26 24 21 24 24
90 91 92 93 92 91 90 90 90 90 90 91 91 91 92 92 91 91 92 91 92 90 89 89 89 90 44 37 26 31 25 25 24 22 22 23 23 24 27 28 28 28 27 26 24 22 24
89 92 92 93 92 91 90 91 90 90 91 92 92 93 93 93 92 92 92 91 92 92 89 89 89 64 50 36 33 36 28 25 25 21 22 21 22 24 26 28 27 28 30 27 24 23 21
88 90 92 93 93 92 92 92 91 91 92 93 92 94 94 93 94 93 93 92 91 91 89 88 87 56 46 34 39 34 27 23 24 25 22 21 22 26 27 28 28 29 31 28 21 19 20
88 90 91 92 94 92 92 93 93 92 93 93 93 94 94 94 94 94 94 92 90 86 88 84 62 53 42 39 33 26 23 24 24 24 26 23 25 32 31 32 31 34 28 33 26 18 18
88 90 90 92 94 94 93 94 94 94 95 95 94 95 95 95 94 96 99 91 87 86 77 66 51 49 35 33 32 32 25 27 30 29 29 30 34 34 37 31 31 32 34 32 28 19 20
89 90 90 92 94 94 93 94 95 96 96 95 94 94 95 95 94 96 84 60 43 43 55 46 40 44 41 34 34 34 30 29 30 34 39 39 39 42 38 38 32 38 40 39 30 22 22
89 90 89 91 93 93 93 93 94 95 95 95 94 95 96 95 94 92 75 61 62 59 68 58 58 56 50 42 45 41 28 37 39 45 41 42 50 41 38 38 39 40 41 36 26 24 23
89 90 90 90 92 93 92 93 94 94 94 94 95 96 96 95 94 84 67 51 60 60 75 56 58 55 49 45 49 44 30 36 41 48 46 49 40 38 42 41 42 40 38 30 26 24 24
89 89 90 91 91 93 93 93 94 94 94 95 96 96 96 95 84 76 63 59 72 65 52 33 48 50 50 49 41 40 27 29 36 41 50 48 42 40 39 43 38 42 26 26 28 25 30
91 91 91 92 91 94 94 94 95 94 94 95 96 96 95 85 79 69 64 72 73 55 46 19 50 29 40 38 29 28 23 25 31 40 44 35 41 48 46 38 34 33 28 26 25 26 31
92 93 92 92 92 95 95 95 95 94 94 95 96 96 93 91 90 77 73 72 62 60 48 30 34 34 35 33 28 25 26 24 26 32 34 33 28 30 30 34 27 26 27 36 38 34 42
94 94 94 94 94 95 95 95 95 95 95 95 96 96 88 85 83 82 76 71 77 68 39 28 43 38 36 37 34 30 32 33 32 39 41 31 31 25 26 28 27 28 32 43 46 45 42
99 97 96 96 96 96 96 95 96 95 95 95 97 95 94 86 82 84 80 82 76 55 46 40 44 41 43 40 38 34 35 35 33 32 40 36 36 33 30 28 30 32 34 50 54 46 38
98 99 98 98 97 97 97 96 96 96 96 96 98 98 99 93 89 86 90 93 74 63 49 47 48 50 48 41 44 37 40 36 31 33 36 44 38 32 30 28 26 36 39 35 45 51 51
96 97 98 99 98 98 98 97 96 96 96 98 98 99 98 91 88 91 95 74 70 51 49 56 54 50 57 50 47 46 43 34 32 32 29 36 40 37 34 27 28 30 30 41 44 51 50
91 97 97 98 99 98 98 98 97 96 97 94 98 99 94 90 87 95 92 77 63 58 49 52 55 58 56 56 49 52 44 36 33 35 30 40 41 41 36 38 34 33 34 38 40 47 49
91 87 95 98 98 97 99 98 98 97 97 97 98 99 96 91 100 95 90 67 67 57 57 56 61 57 62 62 63 57 51 43 38 44 38 42 55 50 36 40 43 39 36 35 48 48 55
86 91 87 90 96 98 98 98 98 98 97 98 99 97 97 90 98 98 85 73 62 65 52 65 64 67 60 62 61 66 62 50 53 48 53 54 64 64 62 53 51 47 43 38 44 50 51
84 86 86 90 88 95 98 97 98 98 96 99 100 100 100 98 80 84 83 91 83 58 58 54 60 66 71 70 66 60 69 59 62 54 77 57 65 61 62 53 52 63 53 44 42 54 51
84 86 86 87 88 91 90 94 97 98 97 99 99 99 96 100 98 91 80 78 89 89 59 55 63 55 58 66 66 67 68 70 70 74 70 63 65 68 56 51 55 51 48 52 55 46 56
80 85 86 86 89 88 92 89 94 98 98 99 100 100 100 97 89 98 95 85 77 80 78 75 69 59 54 61 54 60 54 69 59 83 78 78 71 63 66 58 59 64 56 58 57 54 53
82 83 85 87 86 88 88 92 92 94 99 100 100 99 97 89 90 94 89 85 76 72 72 65 66 67 68 57 49 47 52 65 67 66 85 89 79 99 94 73 72 93 76 64 59 55 55
87 84 84 85 87 86 86 88 92 93 96 99 99 99 100 97 94 87 72 74 81 74 79 74 67 72 58 58 51 83 88 75 72 68 60 72 82 87 96 94 99 69 52 54 68 62 56
89 87 85 84 85 86 87 87 90 92 93 99 100 99 100 100 87 90 86 74 73 76 82 78 73 63 62 70 98 100 100 100 91 86 82 72 83 100 100 98 81 69 64 66 68 64 55
90 89 86 85 85 85 86 86 88 91 91 96 100 98 98 100 100 88 90 86 93 90 94 90 95 88 79 91 100 100 98 95 99 96 71 80 83 96 100 100 96 53 51 48 54 80 49
89 88 87 86 86 86 86 86 86 89 89 93 100 96 98 100 97 98 100 98 94 95 96 99 99 100 87 100 100 100 98 82 98 97 99 98 98 98 97 99 95 59 50 49 83 64 50
87 89 89 88 87 87 87 86 86 86 85 91 99 93 97 100 98 93 95 97 95 99 99 100 99 99 100 100 100 100 100 97 98 78 81 95 99 98 98 100 98 57 55 63 61 49 49
85 88 88 89 90 89 88 87 86 84 84 85 99 92 93 99 100 94 86 84 92 97 98 97 99 98 99 100 100 99 100 100 98 97 83 97 79 87 91 89 68 59 56 50 46 49 47

GFSGBSN_sfc_rhum_228.txt.gz
RH
81 87 87 90 94 94 92 91 90 90 89 88 89 90 88 84 85 87 89 91 90 89 89 89 88 89 37 21 20 21 70 58 20 17 17 18 18 18 18 18 19 20 17 16 14 15 15
84 86 88 90 92 93 91 91 91 91 90 89 89 89 90 90 90 90 90 91 90 90 89 88 88 92 29 22 19 18 19 19 18 16 16 16 18 18 19 19 19 20 18 17 15 15 14
86 87 89 90 92 93 91 92 91 90 90 90 90 90 91 91 91 91 91 91 91 91 89 89 88 48 33 20 20 21 22 18 17 16 17 16 17 19 20 21 19 19 21 16 14 14 16
86 88 89 91 92 93 92 92 91 90 90 90 90 91 92 92 92 92 92 91 92 91 90 86 84 40 23 24 22 24 20 18 18 18 17 16 17 19 21 21 21 21 20 18 16 14 15
85 88 90 91 92 93 92 91 91 90 89 90 91 91 93 93 92 93 92 93 92 86 86 79 48 38 21 36 26 20 20 18 19 19 20 18 19 23 23 23 22 22 17 20 17 13 13
90 86 89 90 91 92 92 91 91 90 90 91 92 92 93 93 94 94 94 91 82 83 60 45 37 39 26 24 24 21 18 19 22 24 24 25 22 25 24 23 22 19 21 19 19 15 15
83 86 88 89 89 91 91 90 91 91 92 92 93 94 94 94 94 94 66 32 33 34 42 24 26 30 23 23 25 24 22 23 23 25 30 29 28 28 23 24 24 23 24 22 19 17 20
84 91 88 88 88 89 91 90 91 92 92 93 94 94 94 94 93 92 61 31 36 48 26 26 27 27 27 29 25 25 24 26 28 30 31 34 34 26 26 28 30 28 27 24 20 17 19
91 90 89 88 88 89 91 91 93 93 93 94 94 94 94 94 92 74 48 31 42 46 38 26 31 27 29 29 22 19 26 27 29 31 31 32 29 30 32 30 33 30 29 25 23 17 16
94 95 90 89 89 90 92 92 93 93 93 94 94 94 95 94 75 51 42 34 41 52 29 17 28 32 39 34 34 27 24 22 27 26 30 30 25 32 31 30 28 32 24 24 21 22 20
94 95 95 90 89 92 92 92 93 92 93 93 94 95 94 88 58 45 39 52 56 54 34 15 37 31 37 36 27 26 20 19 24 28 32 28 31 33 34 28 26 27 21 21 21 22 24
92 94 92 92 90 92 93 93 94 92 93 93 94 94 95 77 62 50 54 54 56 36 35 18 30 37 40 27 23 21 22 18 19 25 27 24 21 22 24 25 24 21 22 23 24 24 33
88 93 90 91 92 92 93 94 94 93 93 94 94 94 82 64 51 57 62 54 45 46 26 19 30 31 33 30 27 23 26 25 22 30 29 22 22 18 20 24 24 23 26 30 33 36 29
87 93 93 91 91 92 94 94 94 94 94 94 95 93 83 62 56 68 62 51 52 22 17 28 30 30 32 28 27 26 26 25 22 23 21 22 27 21 19 22 22 25 24 31 39 32 26
97 98 96 92 92 92 94 94 94 94 94 95 96 88 92 72 70 67 60 71 32 23 19 29 30 31 33 30 31 28 29 25 21 21 26 26 24 20 22 20 19 26 31 24 34 32 39
95 98 98 94 94 94 95 94 94 95 95 96 95 98 95 72 72 75 88 60 34 24 24 26 22 23 28 31 35 34 32 24 24 20 19 24 28 22 24 22 22 25 21 32 31 44 42
90 95 98 98 96 97 97 96 95 95 97 89 98 99 90 80 72 79 87 63 39 32 28 28 24 25 29 32 30 34 28 25 23 22 19 20 27 29 30 28 22 26 27 28 28 31 42
89 92 97 99 99 98 98 97 96 97 96 91 98 97 93 77 98 81 78 46 42 35 36 36 35 27 32 38 39 33 31 23 23 26 29 24 30 32 25 24 28 28 26 26 38 40 37
89 90 94 95 98 98 98 98 97 97 93 96 97 96 96 85 96 94 62 52 41 41 36 37 40 33 31 36 38 37 37 30 31 30 33 35 38 41 34 29 33 32 27 28 30 34 44
87 90 89 94 96 99 99 98 98 97 91 94 97 100 100 96 61 68 75 68 58 41 40 35 32 38 41 38 33 29 39 42 46 35 75 48 34 38 47 37 28 35 35 29 33 48 45
84 85 88 90 95 96 98 99 98 98 92 96 99 97 89 99 96 72 62 58 72 65 46 39 43 37 38 40 36 44 33 40 56 62 51 46 50 36 34 32 34 37 34 31 33 36 46
81 83 88 87 88 93 94 96 98 98 97 99 100 100 100 90 80 82 76 74 63 67 60 63 54 44 44 49 41 46 45 50 46 48 54 46 59 58 59 44 40 44 38 37 35 34 35
84 84 86 89 86 86 90 94 95 98 96 100 100 99 97 92 97 95 86 76 73 66 68 55 52 53 58 50 43 42 55 62 54 49 54 66 78 82 86 49 53 74 52 44 40 36 39
83 86 86 88 88 87 88 91 95 94 97 99 98 97 97 100 94 87 78 80 79 72 76 69 60 66 51 39 46 69 82 80 79 69 56 72 79 85 98 90 99 60 35 40 45 41 40
89 87 87 85 86 87 88 91 93 94 94 99 99 99 99 100 87 83 75 75 69 71 77 71 70 57 50 60 98 100 100 100 88 77 68 64 77 100 100 99 75 56 42 47 52 49 37
89 89 89 87 86 86 88 89 90 92 94 98 99 99 98 100 100 89 85 82 88 84 82 81 62 69 74 87 100 100 99 89 92 83 60 64 72 92 100 100 97 52 36 31 37 66 36
86 88 89 88 87 86 87 87 86 89 92 93 98 95 98 100 96 95 97 95 82 90 94 94 84 92 87 99 100 100 99 73 94 82 91 96 93 98 97 99 85 41 34 39 69 52 33
84 86 88 88 88 87 87 87 86 85 87 89 96 93 97 100 98 93 92 93 92 97 96 100 99 98 100 100 100 100 100 94 87 55 59 86 98 98 98 100 98 42 39 59 46 38 38
77 84 88 90 89 88 88 87 87 86 85 85 98 88 85 94 99 86 80 86 87 94 95 96 99 98 100 99 92 98 100 99 92 92 49 85 74 79 83 83 52 43 45 39 39 40 39

GFSGBSN_sfc_rhum_231.txt.gz
RH
90 84 87 88 86 89 93 93 92 91 89 88 88 87 86 85 84 85 87 89 90 88 89 89 88 88 39 20 13 19 68 53 20 16 16 15 16 14 14 12 12 14 11 10 9 10 10
84 90 86 88 88 88 92 93 92 92 90 89 88 88 87 86 86 88 88 89 90 90 90 89 88 92 29 19 13 15 16 16 15 14 14 14 15 14 15 14 13 12 13 12 11 11 10
84 88 86 88 89 90 92 93 93 91 90 90 89 88 88 88 88 89 89 90 91 90 89 89 86 40 23 17 12 14 16 14 13 12 13 13 13 16 15 18 13 14 16 13 12 11 11
88 88 91 87 89 91 93 94 93 91 90 89 89 89 89 89 89 90 91 91 91 90 90 87 83 32 23 16 13 16 15 14 13 13 13 13 14 16 18 16 18 17 15 17 9 10 11
90 89 91 87 89 91 92 93 92 91 90 90 90 89 90 90 91 91 91 90 90 88 85 77 41 30 18 35 19 15 15 15 14 14 16 16 16 18 18 21 20 18 18 14 12 11 10
87 89 90 92 89 90 92 92 92 91 90 90 89 89 90 91 91 92 92 90 75 79 61 33 27 30 17 16 17 16 15 15 16 18 19 21 20 23 20 19 22 18 17 14 14 11 12
77 89 91 90 91 91 91 92 91 91 90 89 89 90 91 92 92 93 73 27 28 40 32 16 18 17 17 17 20 18 14 17 17 19 24 20 24 24 20 18 17 18 19 17 13 12 17
80 83 90 91 90 90 90 91 91 91 90 89 90 91 92 92 93 92 63 28 21 37 23 14 15 17 15 16 18 16 15 21 21 24 20 24 29 21 18 18 22 23 22 19 15 13 16
80 81 85 89 89 91 90 90 91 90 89 90 91 92 92 93 91 75 39 26 25 30 24 14 12 13 13 16 19 12 17 18 18 24 22 26 20 23 24 24 27 24 24 21 19 15 14
80 83 82 88 90 92 90 89 91 91 89 91 92 93 93 94 75 38 38 26 26 42 22 13 19 20 25 22 20 11 12 17 22 23 19 22 17 24 24 24 21 26 18 20 20 20 19
80 83 83 88 92 92 90 90 91 91 90 90 92 93 93 83 45 38 22 25 36 48 31 10 22 23 27 23 26 26 17 21 22 21 24 23 24 26 28 23 20 22 20 19 20 20 20
81 82 82 85 90 92 91 90 91 92 90 91 92 92 92 78 56 32 35 40 51 41 32 16 25 31 38 32 22 23 25 17 15 18 20 20 16 18 19 20 20 19 22 20 20 21 27
81 82 86 89 90 92 91 90 92 92 91 92 92 92 85 48 47 41 54 54 38 39 13 15 23 28 31 31 23 22 26 23 20 27 26 18 18 16 16 21 20 21 23 29 31 32 30
80 78 88 90 93 96 92 92 93 93 92 92 93 92 80 50 41 58 62 48 41 18 15 12 18 25 29 26 26 24 23 23 19 18 18 18 22 17 16 20 20 23 22 29 37 32 24
83 79 85 92 89 95 96 94 94 93 92 93 94 84 76 63 60 64 61 66 33 21 11 12 19 27 27 24 25 26 27 23 18 18 22 16 17 14 15 15 16 20 26 18 28 27 32
86 83 85 94 90 91 94 94 94 92 92 92 86 94 87 66 67 73 77 54 27 13 12 12 21 18 21 24 30 30 27 20 21 17 17 18 25 16 15 17 17 19 16 29 26 42 42
86 86 84 93 92 91 91 94 95 92 92 84 93 97 76 73 73 87 76 49 29 14 16 17 17 14 14 17 25 30 22 19 18 18 17 18 24 18 21 24 18 20 24 24 24 25 34
85 86 87 95 94 91 91 92 93 92 90 85 92 92 81 86 91 59 60 38 34 23 23 22 29 16 15 17 20 24 24 17 18 19 25 21 24 28 20 16 14 18 22 22 32 35 31
82 86 87 94 96 90 92 94 94 92 84 84 93 81 86 82 87 68 48 39 31 30 26 27 27 23 17 22 31 25 20 17 22 24 25 25 30 35 28 21 17 25 23 22 25 28 34
81 84 87 94 96 95 93 94 94 90 80 74 93 99 100 97 54 52 51 44 41 29 28 28 25 22 24 24 22 23 22 28 33 28 68 45 30 30 40 30 22 26 24 26 28 40 39
86 82 88 93 95 98 95 95 95 89 79 75 89 90 84 98 92 57 45 41 42 42 32 30 34 29 29 33 27 31 22 32 47 58 44 40 39 31 28 24 24 25 26 26 29 30 41
86 80 86 92 92 95 98 95 95 92 83 91 98 84 73 60 71 68 59 54 42 38 37 42 41 34 32 36 32 34 30 36 36 38 42 37 48 38 40 30 30 33 29 29 30 29 29
88 85 82 88 90 91 96 97 97 94 90 94 96 76 67 76 82 86 75 58 49 41 41 33 38 39 40 36 30 30 45 37 32 38 40 48 55 72 83 45 45 68 46 39 36 33 32
83 87 86 82 89 89 92 96 97 97 97 99 99 88 91 98 76 81 65 55 52 47 51 40 41 48 39 46 40 46 53 54 58 57 46 62 65 82 97 87 99 51 31 30 35 32 30
89 87 85 86 84 90 93 93 95 97 96 98 99 97 96 96 84 75 72 70 61 56 60 53 51 42 44 54 98 100 99 100 88 77 64 59 77 100 100 99 73 53 39 36 37 37 29
89 92 88 88 91 90 93 92 93 94 95 98 99 97 98 100 97 70 81 74 85 84 80 72 60 57 65 80 100 100 100 91 93 84 60 63 74 94 100 100 96 46 29 28 32 56 30
85 86 90 90 92 92 92 92 93 93 92 94 98 97 97 100 94 95 98 91 88 93 97 96 89 98 85 100 100 100 99 74 86 75 84 87 94 98 97 100 82 39 30 28 58 47 27
78 85 86 90 90 91 91 89 90 92 89 91 98 96 97 100 98 95 96 95 95 93 94 100 95 96 100 100 100 100 100 94 86 53 56 85 98 98 98 100 97 36 33 49 42 36 30
77 78 86 89 90 90 89 89 87 88 91 85 94 90 93 96 99 94 92 94 93 94 94 97 98 98 99 100 98 98 100 96 81 87 46 76 80 78 76 78 50 40 40 33 31 35 33

GFSGBSN_sfc_rhum_234.txt.gz
RH
77 83 83 90 89 92 93 94 94 94 92 90 88 87 86 85 86 86 87 88 88 88 89 89 88 87 50 25 18 21 66 53 20 18 17 16 16 16 17 13 12 13 12 9 8 8 10
78 86 86 84 92 88 89 91 95 95 93 91 90 89 88 86 85 87 88 89 90 90 89 89 88 93 42 23 13 17 16 16 16 15 15 14 15 14 17 16 15 12 11 12 11 11 9
82 80 89 88 88 91 88 90 95 95 94 92 90 89 88 88 88 88 88 89 90 89 89 88 88 51 30 20 11 13 14 14 12 12 12 11 12 15 16 18 14 14 15 14 13 11 11
78 82 80 90 88 90 90 91 94 94 94 92 90 90 89 88 88 89 90 90 90 88 87 88 87 43 32 12 13 12 13 14 12 12 12 12 13 16 17 16 17 19 19 20 13 10 10
77 84 84 88 90 90 92 92 94 94 94 93 91 90 89 89 90 90 90 90 89 87 86 84 52 40 28 29 17 12 13 15 14 13 14 14 16 20 19 21 23 20 24 20 15 9 10
76 77 82 86 81 90 91 91 93 94 94 94 92 91 89 89 90 91 91 89 69 76 46 38 26 26 20 16 13 14 13 15 15 16 18 19 22 26 23 24 30 21 20 18 17 11 12
76 76 78 81 89 87 90 92 92 94 94 93 91 90 89 90 91 92 77 36 36 44 32 22 20 16 15 14 18 16 14 15 15 17 23 19 24 28 22 20 19 18 19 20 16 11 13
76 77 77 78 80 87 91 90 92 94 93 93 92 91 90 90 91 92 70 38 23 34 39 21 22 16 12 12 18 17 12 19 21 24 19 22 29 21 19 18 20 20 22 23 17 13 14
79 77 76 78 78 81 89 92 93 94 92 92 92 90 90 92 91 81 52 36 19 27 31 17 12 11 12 11 16 15 12 18 22 19 19 23 21 19 21 22 23 23 26 24 21 16 14
79 78 78 80 80 81 87 92 91 94 93 92 91 91 92 94 83 51 47 31 27 36 34 16 14 11 10 10 19 12 10 15 20 21 17 21 17 18 23 22 21 28 19 19 20 22 25
80 80 81 80 81 82 87 92 94 94 93 92 89 90 93 82 53 46 32 28 33 48 49 10 12 13 14 20 17 16 13 13 21 21 20 22 21 22 25 22 19 23 20 21 21 22 24
79 79 79 83 82 84 83 87 93 95 93 91 90 90 92 81 69 39 29 32 53 61 43 15 24 27 31 25 19 22 16 15 17 22 18 20 15 17 19 17 18 18 21 22 21 22 32
78 75 79 81 84 82 82 82 93 95 93 91 90 91 86 55 58 50 55 57 56 50 14 13 26 23 28 30 26 25 28 31 23 28 28 19 19 16 15 20 20 21 25 33 34 38 35
75 76 76 81 82 81 84 83 88 96 94 93 91 91 83 56 46 59 66 64 51 23 19 9 12 21 31 24 27 22 26 31 24 19 19 21 25 17 15 19 21 25 24 35 40 37 30
72 75 78 77 81 80 83 87 87 95 94 93 92 84 83 73 63 71 79 81 48 22 12 14 13 24 28 23 25 25 28 25 21 21 26 19 16 12 14 15 16 19 26 20 30 28 34
74 73 76 76 80 81 83 90 89 95 95 94 86 95 86 71 74 86 90 62 36 19 14 12 17 16 25 23 28 31 29 21 22 18 20 21 24 14 14 14 15 18 15 26 27 45 46
76 74 73 80 79 82 83 92 91 95 95 90 92 98 76 73 85 97 86 59 38 18 15 16 17 15 19 19 24 29 26 20 20 19 19 21 28 22 15 22 21 18 23 25 24 28 40
79 77 75 78 79 84 82 91 91 94 94 92 90 92 76 83 98 74 69 49 39 26 19 17 18 17 20 20 20 26 27 22 17 21 26 26 30 32 21 14 16 17 21 21 35 37 33
81 78 74 78 80 84 83 91 96 95 94 95 82 65 82 83 92 76 58 46 35 34 27 22 21 21 22 25 26 22 25 21 24 22 36 34 40 41 28 20 16 19 18 20 25 30 37
83 81 80 83 84 84 86 90 96 94 92 96 88 97 100 94 58 59 60 54 47 32 28 24 23 23 26 31 23 26 28 30 32 28 61 52 35 29 38 26 18 23 19 19 25 41 42
82 83 84 85 87 85 88 89 93 93 92 94 91 84 82 98 86 61 49 44 46 45 32 27 31 30 31 35 29 31 28 42 42 62 48 50 45 33 23 18 19 21 21 22 24 25 35
80 82 86 85 89 85 90 91 95 91 91 95 95 76 74 70 73 70 58 51 46 38 37 40 39 33 33 37 33 36 35 40 42 46 46 40 50 37 36 24 24 28 26 28 28 28 28
82 84 89 87 90 86 92 94 92 90 88 96 79 56 60 75 81 81 68 53 45 41 38 32 35 38 41 36 35 36 46 48 41 36 44 48 51 57 62 37 41 63 43 37 36 29 30
89 89 87 87 89 87 95 91 92 89 86 93 85 67 82 86 80 72 58 51 45 42 46 36 35 40 35 49 49 50 53 51 41 41 40 50 53 65 79 76 99 50 29 29 36 35 33
85 90 88 87 89 90 95 97 90 90 89 94 95 91 83 89 67 62 61 56 50 46 50 44 40 33 49 49 90 100 100 73 56 44 44 50 65 99 99 94 71 57 44 44 42 41 30
82 88 88 90 90 90 95 97 97 96 94 97 98 93 92 88 89 57 63 59 69 68 63 54 46 53 59 76 100 100 94 68 66 60 44 50 63 91 100 100 94 50 31 31 39 64 35
79 87 90 88 89 89 94 95 95 96 95 94 99 94 93 100 94 87 82 82 66 71 76 68 63 69 80 90 96 98 89 69 87 82 93 83 85 97 97 99 82 41 32 33 61 54 37
80 84 90 88 90 88 91 93 94 94 94 94 100 97 94 100 98 90 90 89 88 79 88 99 88 97 98 95 98 100 100 88 83 57 73 89 98 99 96 100 96 41 38 54 46 41 38
80 78 88 90 92 91 89 91 93 94 94 92 99 97 94 97 100 95 94 93 92 97 95 98 98 98 99 98 99 99 100 99 86 89 54 95 86 86 83 81 53 43 46 40 47 58 54

GFSGBSN_sfc_rhum_237.txt.gz
RH
80 77 77 84 85 87 94 93 95 95 94 93 91 89 86 85 85 85 87 89 89 89 88 88 87 88 62 46 33 35 73 62 28 24 25 25 25 25 27 24 22 22 18 15 14 14 14
76 76 81 83 88 86 86 93 95 96 95 94 93 91 89 86 85 86 87 89 89 89 89 88 88 92 64 44 22 28 30 26 22 24 24 23 22 19 23 23 26 20 19 20 17 18 16
71 79 82 83 85 90 89 90 95 96 96 95 94 92 90 88 87 88 88 89 90 90 89 88 88 64 56 31 19 26 22 22 20 20 21 18 17 20 23 25 21 21 26 23 20 18 18
71 78 77 83 86 86 91 90 90 93 95 95 94 93 91 90 89 88 90 90 90 88 88 88 87 67 63 20 22 19 21 19 16 16 18 17 20 23 28 23 23 27 28 35 23 19 16
74 75 78 82 86 88 82 88 90 92 94 95 94 94 92 90 90 90 90 90 89 86 88 85 74 66 55 29 22 17 17 19 17 17 18 14 25 30 29 37 40 37 40 33 26 18 17
74 75 77 78 82 87 87 82 90 90 94 95 94 94 92 90 90 90 92 89 76 83 54 42 41 44 30 21 21 18 16 18 21 23 23 26 33 41 42 44 50 39 35 31 30 21 18
69 73 77 78 78 81 81 84 83 92 93 95 94 94 93 90 90 91 85 63 46 66 55 45 38 30 16 20 23 23 18 20 24 25 32 28 38 44 40 35 30 28 29 30 26 21 21
70 73 77 78 78 78 76 81 89 86 92 95 95 94 93 91 90 90 90 69 41 45 54 36 30 26 22 18 22 24 20 24 28 33 27 32 36 28 25 26 29 31 33 35 28 22 22
75 77 73 76 77 77 77 78 89 92 89 94 95 94 92 92 93 93 82 56 38 43 61 34 24 22 24 20 20 22 22 22 28 34 32 34 27 21 24 28 29 30 34 35 33 25 23
76 78 78 78 80 78 80 80 83 92 93 94 95 94 93 93 92 79 78 51 48 52 73 33 21 18 15 15 19 13 16 19 27 30 30 28 19 20 24 28 27 34 27 28 28 33 39
77 79 79 80 82 82 81 83 84 88 93 91 96 94 90 81 70 70 47 44 47 63 80 23 17 14 14 18 21 22 14 18 23 29 28 30 27 28 33 28 25 30 27 29 31 37 36
74 74 80 81 81 83 84 83 85 86 90 92 96 95 91 87 83 66 40 45 63 94 82 24 32 29 24 20 24 28 23 21 19 25 24 24 21 23 27 23 24 23 28 29 34 38 50
77 76 75 79 79 81 83 84 84 84 86 90 95 95 92 71 77 48 69 54 88 93 22 23 37 33 35 34 32 30 33 27 37 41 36 29 26 19 19 27 27 29 38 55 56 57 55
75 77 78 79 78 79 82 82 82 85 84 88 94 96 90 68 60 53 80 82 86 39 27 15 27 31 39 37 38 33 37 38 32 31 32 36 40 22 21 24 30 33 37 58 59 60 49
76 77 79 78 78 79 80 83 83 84 85 84 93 98 97 74 61 82 86 87 57 31 24 23 21 36 38 32 37 37 37 38 35 32 37 35 30 19 18 20 22 30 42 30 44 46 54
75 76 76 78 77 78 80 80 83 83 86 86 98 98 95 71 73 92 91 72 46 28 20 21 26 26 40 35 38 37 38 29 29 26 26 34 37 22 21 21 22 24 23 36 44 58 62
77 77 77 76 77 77 78 81 82 83 85 87 99 99 93 70 90 90 90 71 45 29 25 30 28 28 29 34 34 39 38 29 26 26 24 28 38 35 26 30 27 29 32 33 36 43 54
80 78 77 78 78 78 78 81 82 84 83 96 97 99 95 82 97 89 84 62 48 40 30 28 26 28 29 31 34 36 37 31 26 25 29 32 44 48 32 23 21 24 30 35 46 47 51
84 84 83 82 81 79 78 79 81 84 83 98 98 97 94 85 95 92 67 64 50 42 38 33 33 32 29 34 34 36 35 29 30 29 36 34 46 55 43 30 25 26 29 29 34 44 43
86 83 83 85 83 81 79 80 83 84 83 97 98 100 99 95 67 68 75 70 67 44 41 36 32 32 34 37 40 44 34 50 38 45 66 47 48 50 51 37 30 33 28 25 30 51 43
85 84 83 83 84 82 81 82 84 86 83 98 98 97 92 97 91 66 66 64 65 59 46 37 41 38 37 46 45 44 40 54 53 65 54 48 56 51 43 37 33 31 28 26 28 28 37
86 81 84 84 83 85 84 84 86 86 83 99 99 99 97 87 71 66 64 60 65 55 46 53 48 40 33 42 45 43 43 52 51 60 56 56 58 52 44 39 36 38 31 29 29 27 29
79 86 87 84 82 86 85 86 87 87 88 97 97 96 90 81 74 79 71 60 56 51 49 39 42 48 49 35 38 38 47 50 55 60 62 58 66 76 57 45 59 59 47 36 34 32 33
76 78 84 89 88 89 85 85 88 85 88 96 94 89 92 96 78 72 60 58 55 53 52 45 45 45 50 52 50 61 60 57 59 63 54 68 70 79 74 79 91 53 35 36 53 48 43
73 80 82 86 87 84 86 86 84 86 88 96 93 88 86 96 80 68 66 61 57 50 57 48 43 45 47 59 89 92 92 72 49 58 59 61 79 99 95 93 60 51 41 43 46 43 38
74 78 82 88 91 88 88 87 91 94 90 96 91 96 93 88 91 64 68 64 71 71 77 55 54 52 60 83 98 98 88 71 75 60 41 55 67 81 99 99 79 46 40 38 44 77 47
80 79 81 92 89 88 91 92 96 90 85 93 97 97 96 100 98 93 81 75 66 66 71 78 67 83 75 92 97 93 84 62 71 66 80 66 80 83 81 91 72 50 41 39 71 71 64
84 80 81 94 90 90 94 94 95 90 84 96 100 99 96 100 99 97 95 94 89 71 78 84 85 96 100 95 93 100 99 80 78 51 58 76 90 86 84 94 93 52 50 61 74 76 75
84 80 82 94 93 91 92 92 96 96 96 91 99 98 92 97 100 98 99 99 97 97 94 98 92 97 98 95 98 98 100 99 83 85 53 77 67 74 77 80 62 58 86 79 72 74 72